Location: Newark
(35.2672°N, 80.7344°W)
Time: 14:38:34
(UTC+00:00)

Tiros 1 - Pass Details

Date: 28 January 2020
Orbit: 631 x 664 km, 48.4° (Epoch: 23 February)

Event Time Altitude Azimuth Distance (km) Brightness Sun altitude
Rises 17:02:50 0° 251° (WSW) 2,918 10.6 36.0°
Reaches altitude 10° 17:05:15 10° 259° (WSW) 2,016 9.8 36.0°
Maximum altitude 17:09:39 43° 330° (NNW) 905 7.9 36.2°
Drops below altitude 10° 17:14:08 10° 43° (NE) 2,042 9.5 36.3°
Sets 17:16:36 0° 50° (NE) 2,960 10.3 36.3°
